Starlink 30991

operational
NORAD ID: 58484 Int'l Des: 2023-186 Owner: SPXS Country: US Constellation: starlink
LEOCIRCULAR

关于 Starlink 30991

正在加载描述...

实时位置

正在加载3D地球...

即将过境

高度历史

Altitude vs Time

uPlot chart will show altitude changes over time

两行轨道根数

1 58484U 23186M 25258.82834974 .00000442 00000-0 47804-4 0 9993
2 58484 43.0056 297.0934 0001329 274.3878 85.6813 15.02537868 99540
Epoch: Sep 15, 2025 • Age: 22 hours

当前状态

高度 561.6 km
速度 7.58 km/s
星下点 -14.33°S, 130.6°W
发射日期 Dec 3, 2023
运行时间 1.7 years
类型 internet

技术详情

分类 Payload
质量 730.00 kg
干质量 700.00 kg
总质量 730.00 kg
长度 0.30 m
直径 4.10 m
跨度 29.00 m
形状 Box + pan
制造商 SPXS
平台类型 Starlink V2M
阶段状态 In Orbit
所有者/国家 SPXS/US

大型星座

Loading constellations...